TimeMDT,TemperatureF,Dew PointF,Humidity,Sea Level PressureIn,VisibilityMPH,Wind Direction,Wind SpeedMPH,Gust SpeedMPH,PrecipitationIn,Events,Conditions,WindDirDegrees,DateUTC
12:53 AM,48.0,39.9,74,29.85,10.0,South,15.0,-,N/A,,Clear,170,2012-10-13 06:53:00
1:53 AM,48.0,39.9,74,29.83,10.0,South,8.1,-,N/A,,Clear,180,2012-10-13 07:53:00
2:53 AM,46.0,39.9,79,29.80,10.0,SSW,8.1,-,N/A,,Clear,200,2012-10-13 08:53:00
3:53 AM,41.0,37.9,89,29.79,10.0,WSW,8.1,-,N/A,,Clear,240,2012-10-13 09:53:00
4:53 AM,41.0,37.9,89,29.78,10.0,SSW,6.9,-,N/A,,Clear,200,2012-10-13 10:53:00
5:53 AM,43.0,37.9,82,29.78,10.0,West,11.5,-,N/A,,Clear,260,2012-10-13 11:53:00
6:53 AM,44.1,39.0,82,29.79,10.0,West,10.4,-,N/A,,Clear,260,2012-10-13 12:53:00
7:53 AM,45.0,39.0,80,29.79,10.0,West,5.8,-,N/A,,Clear,260,2012-10-13 13:53:00
8:53 AM,54.0,43.0,66,29.78,10.0,West,8.1,-,N/A,,Clear,270,2012-10-13 14:53:00
9:53 AM,63.0,41.0,45,29.75,10.0,NW,18.4,24.2,N/A,,Clear,320,2012-10-13 15:53:00
10:53 AM,66.9,41.0,39,29.72,10.0,NNW,15.0,-,N/A,,Clear,330,2012-10-13 16:53:00
11:53 AM,71.1,42.1,35,29.70,10.0,NNW,12.7,18.4,N/A,,Clear,340,2012-10-13 17:53:00
12:53 PM,73.0,42.1,33,29.67,10.0,North,11.5,23.0,N/A,,Clear,360,2012-10-13 18:53:00
1:53 PM,75.0,42.1,31,29.65,10.0,NNW,12.7,21.9,N/A,,Partly Cloudy,330,2012-10-13 19:53:00
2:53 PM,68.0,45.0,43,29.66,10.0,NW,16.1,27.6,0.00,Rain-Thunderstorm,Light Thunderstorms and Rain,320,2012-10-13 20:53:00
3:11 PM,68.0,44.6,43,29.70,10.0,NNW,19.6,25.3,N/A,,Scattered Clouds,330,2012-10-13 21:11:00
3:53 PM,71.1,44.1,38,29.67,10.0,NW,23.0,33.4,N/A,,Clear,320,2012-10-13 21:53:00
4:40 PM,69.8,44.6,40,29.69,10.0,NW,23.0,35.7,N/A,Thunderstorm,Thunderstorm,320,2012-10-13 22:40:00
4:53 PM,70.0,43.0,38,29.67,10.0,NW,25.3,36.8,N/A,Thunderstorm,Thunderstorm,320,2012-10-13 22:53:00
5:13 PM,68.0,42.8,40,29.71,10.0,NW,24.2,33.4,N/A,,Scattered Clouds,320,2012-10-13 23:13:00
5:53 PM,68.0,30.2,24,29.73,10.0,North,25.3,32.2,N/A,,Scattered Clouds,360,2012-10-13 23:53:00
6:53 PM,64.9,33.1,31,29.75,10.0,NNW,21.9,27.6,N/A,,Mostly Cloudy,340,2012-10-14 00:53:00
7:53 PM,62.6,32.0,32,29.83,10.0,North,16.1,-,N/A,,Scattered Clouds,350,2012-10-14 01:53:00
8:53 PM,62.1,32.0,32,29.84,10.0,NNW,15.0,-,N/A,,Overcast,330,2012-10-14 02:53:00
9:53 PM,59.0,33.1,38,29.86,10.0,NW,11.5,-,N/A,,Scattered Clouds,310,2012-10-14 03:53:00
10:53 PM,60.1,34.0,38,29.88,10.0,NNW,12.7,-,N/A,,Overcast,330,2012-10-14 04:53:00
11:53 PM,59.0,34.0,39,29.91,10.0,NNW,18.4,-,N/A,,Scattered Clouds,330,2012-10-14 05:53:00